DELTA 1 DEB, 21674

Orbit data source: Space-Track

DELTA 1 DEB, 21674 is space debris in SSO originally from a launch on Thu, 12 Jun 1975 UTC launched from the Air Force Western Test Range (AFWTR). Debris objects in space refer to the collection of defunct objects orbiting the Earth. Examples of debris include non-operational satellites, rocket bodies, and fragments generated from explosions, collisions, or faulty payload assembly.

Loading next visibility...
Identifier
21674, 1975-052JA
Orbit
SSO
Country
Flag of USUS
Related business
Manufacturer
Unknown
Mission
Spacecraft
Bus & Motor
Unknown
Mass
Unknown
Launch date (UTC)
1975-06-12 (50 years ago)
Launch vehicle
Unknown
Launch site
Air Force Western Test Range (AFWTR)
Object type
Payload
Rocket body
Debris
Shape & HBR
Unknown shape, 0.1 m
Radar Cross Section
Small (<0.1 m²)

Expand to show TLE details & history
Last TLE update: 22 hours ago

TLE from 22 hours ago
0 DELTA 1 DEB
1 21674U 75052JA  25306.06098990  .00005717  00000-0  13385-2 0  9998
2 21674 100.0757 147.5990 0106037  78.7406 282.5679 14.51678281777896
Epoch: 2025-11-02T01:27Z
TLE epoch observation values (Epoch: 2025-11-02T01:27:49.527Z)
Latitude
0.00006°
Longitude
84.0605°
Altitude
707.464 km
Speed
7.51 km/s
True Right ascension
09h 50m 23s
True Declination
0° 00' 00"
Sunlit
Object was in daylight at epoch
Visualization orbit readout
Latitude
Unknown
Longitude
Unknown
Altitude
Unknown
Speed
Unknown
Apparent Right ascension
Unknown
Apparent Declination
Unknown
Sunlit
N/A
Visualization observer readout
Local Sidereal Time
19:26:58
Azimuth
Unknown
Elevation
Unknown
Doppler factor
Unknown
Orbital elements
Apogee altitude
792.598 km
Perigee altitude
642.121 km
Semi-major axis
7,095.497 km
Eccentricity
0.0106
Inclination
100.0757°
RAAN
147.599°
Arg. of periapsis
78.7406°
True anomaly
281.37858°
Mean anomaly
282.5679°
Eccentric anomaly
281.97357°
Mean motion
3.63136 °/min
Orbital period
99.14 mins
BSTAR
0.0013385
Loading maneuver chart data...
Computing Atmospheric mass density...
Loading historical data...
Loading historical data...
Loading historical data...
Loading historical data...
Loading historical data...
Loading historical data...
Loading historical data...

Documentation

Showing up to 5 results
|